[[{"header":{"parameterUnit":"m.s-1","parameterCategory":1,"la1":30.2992,"la2":30.254,"lo1":-89.0895,"lo2":-89.0443,"dy":0.0025,"dx":0.0025,"nx":19,"ny":19,"refTime":"2026-04-24T21:00:00:Z","depth":0,"parameterNumber":2,"parameterNumberName":"U-component_of_WINDS"},"data":[0,0,0,0.7997,0.7998,0.8046,0.8046,0.8122,0.8123,0,0,0,0,0,0,0,0,0,0,0,0.7992,0.7993,0.7997,0.7999,0.8046,0.8046,0.8122,0.8123,0,0,0,0,0,0,0,0,0,0,0,0.7992,0.7993,0.7994,0.7999,0.8046,0.8046,0.8121,0.808,0,0,0,0,0,0,0,0,0,0,0.8032,0.8036,0.7993,0.7994,0.7999,0.8046,0.8046,0.8078,0.8083,0.8107,0,0.813,0,0.8127,0.8129,0.8129,0,0,0,0.7992,0.8032,0.8036,0.7994,0.8,0.8046,0.8023,0.8081,0.8086,0.8113,0.8131,0.8133,0.8129,0.8129,0.813,0.8286,0.8287,0,0,0.799,0.8006,0.8033,0.804,0.8034,0.8021,0.8024,0.8084,0.8104,0.8131,0.8135,0.813,0.813,0.813,0.8285,0.8286,0,0,0,0.7986,0.8004,0.8007,0.8038,0.8045,0.8023,0.8026,0.8102,0.8101,0.8135,0.8131,0.813,0.8131,0.8284,0.8285,0.8352,0,0,0,0.7985,0.8002,0.8006,0.8017,0.8044,0.8074,0.8043,0.8097,0.8103,0.813,0.813,0.8132,0.8282,0.8284,0.8348,0.8382,0,0,0,0.7986,0.8003,0.8012,0.8018,0.8038,0.8073,0.8075,0.8098,0.8101,0.8129,0.8132,0.8282,0.8284,0.8344,0.8375,0.8427,0,0,0,0.7993,0.8072,0.8014,0.81,0.8038,0.8113,0.8075,0.813,0.8162,0.8131,0.8283,0.8285,0.8343,0.8371,0.8423,0.8475,0.8498,0,0,0.8102,0.8086,0.8135,0.8084,0.8174,0.8104,0.8204,0.8218,0.8206,0.826,0.8264,0.8349,0.8375,0.8426,0.8618,0.8636,0,0,0,0.8175,0.8211,0.8231,0.8262,0.8273,0.8286,0.8283,0.8288,0.8333,0.8237,0.8381,0.8396,0.8426,0.845,0.8465,0.849,0.8297,0.8296,0.8296,0.8355,0.8333,0.8413,0.8398,0.8428,0.8423,0.8445,0.8451,0.8423,0.8457,0.8473,0.8592,0.862,0.8632,0.8658,0.8498,0.8498,0.8498,0.8498,0.8513,0.856,0.8518,0.858,0.8558,0.861,0.8608,0.8585,0.8631,0.8578,0.8603,0.8548,0.8652,0.8674,0.8503,0.8502,0.8502,0.8501,0.8501,0.8629,0.8648,0.8651,0.8692,0.8726,0.8707,0.8752,0.873,0.8709,0.8734,0.8748,0.8747,0.8744,0.8742,0.8742,0.8743,0.8743,0.8743,0.8744,0.8748,0.875,0.879,0.8808,0.8824,0.8842,0.8836,0.8851,0.8862,0.8842,0.8842,0.881,0.8666,0.8631,0.875,0.8749,0.8748,0.8747,0.8747,0.8919,0.8876,0.8939,0.8955,0.8973,0.9007,0.8977,0.9009,0.9018,0.9041,0.9003,0.8899,0.8882,0.8869,0.884,0.9007,0.9007,0.9007,0.9007,0.9018,0.9005,0.9064,0.909,0.9113,0.9092,0.9163,0.9159,0.9148,0.9152,0.9124,0.9083,0.9071,0.906,0.9044,0.9016,0.9224,0.9224,0.9224,0.9121,0.911,0.9176,0.9163,0.9175,0.9185,0.9252,0.9284,0.9262,0.9233,0.9155,0.9146,0.9079,0.9058,0.9029,0.9004,0.8953,0,0]},{"header":{"parameterUnit":"m.s-1","parameterCategory":1,"la1":30.2992,"la2":30.254,"lo1":-89.0895,"lo2":-89.0443,"dy":0.0025,"dx":0.0025,"nx":19,"ny":19,"refTime":"2026-04-24T21:00:00:Z","depth":0,"parameterNumber":3,"parameterNumberName":"V-component_of_WINDS"},"data":[0,0,0,5.0854,5.0857,5.0999,5.1,5.1181,5.1182,0,0,0,0,0,0,0,0,0,0,0,5.0816,5.0818,5.0854,5.0858,5.0999,5.1,5.118,5.1182,0,0,0,0,0,0,0,0,0,0,0,5.0816,5.0817,5.0819,5.0858,5.0999,5.1,5.118,5.1072,0,0,0,0,0,0,0,0,0,0,5.0934,5.0904,5.0817,5.0819,5.0859,5.0999,5.1,5.1067,5.1079,5.1118,0,5.1158,0,5.1174,5.1195,5.1196,0,0,0,5.0853,5.0894,5.0929,5.0819,5.086,5.0999,5.0934,5.1073,5.1087,5.1134,5.116,5.1167,5.1177,5.1196,5.1197,5.1451,5.1452,0,0,5.0845,5.0843,5.092,5.0939,5.0922,5.0929,5.0938,5.1082,5.1108,5.1161,5.1171,5.118,5.1197,5.1199,5.1449,5.1451,0,0,0,5.0826,5.0837,5.0869,5.0931,5.0957,5.0934,5.0944,5.1102,5.1113,5.1173,5.1182,5.1198,5.1201,5.1448,5.145,5.152,0,0,0,5.0821,5.0826,5.0866,5.0865,5.0955,5.1032,5.0961,5.1103,5.1119,5.1181,5.1199,5.1203,5.1446,5.1449,5.1515,5.1553,0,0,0,5.0805,5.0824,5.0847,5.0865,5.0927,5.103,5.1049,5.1106,5.1125,5.1196,5.1203,5.1445,5.1449,5.151,5.1545,5.1621,0,0,0,5.0787,5.0903,5.0848,5.0981,5.0926,5.1074,5.1048,5.1157,5.1226,5.1199,5.1447,5.145,5.1509,5.154,5.1616,5.1684,5.1713,0,0,5.0932,5.092,5.0999,5.0954,5.1113,5.1052,5.1219,5.1282,5.1287,5.1395,5.1401,5.1517,5.1544,5.162,5.1873,5.1896,0,0,0,5.1044,5.11,5.1143,5.1212,5.1267,5.1316,5.1355,5.1378,5.1471,5.1344,5.1564,5.158,5.1624,5.1657,5.1677,5.1715,5.1465,5.1465,5.1464,5.1243,5.1251,5.1381,5.1406,5.1473,5.1514,5.1568,5.1606,5.1588,5.164,5.1672,5.1826,5.1864,5.1879,5.1919,5.1708,5.1709,5.1709,5.1709,5.1457,5.1538,5.1519,5.1639,5.1644,5.1743,5.1787,5.1772,5.1863,5.1801,5.184,5.1773,5.1904,5.1939,5.1714,5.1713,5.1713,5.1712,5.1712,5.1589,5.1629,5.166,5.1764,5.1841,5.186,5.1951,5.195,5.195,5.1988,5.2023,5.2022,5.2021,5.2005,5.2006,5.2006,5.2007,5.2007,5.2007,5.1713,5.1746,5.1825,5.1897,5.1943,5.2003,5.2047,5.209,5.2138,5.213,5.213,5.2108,5.1916,5.1868,5.2016,5.2014,5.2013,5.2012,5.2012,5.1927,5.188,5.2002,5.2049,5.2134,5.2212,5.2212,5.2302,5.2337,5.2382,5.2353,5.2211,5.2197,5.2181,5.2142,5.2351,5.2351,5.2351,5.2351,5.2038,5.2034,5.2161,5.2236,5.2309,5.2324,5.2459,5.2495,5.2522,5.2545,5.2514,5.2461,5.2446,5.2441,5.242,5.2383,5.2649,5.2649,5.265,5.2171,5.2174,5.2291,5.2325,5.2391,5.2448,5.2576,5.2659,5.268,5.2662,5.2562,5.2549,5.2464,5.2436,5.2414,5.2381,5.2313,0,0]}]]